Probability
0 0 0 0 0 0 0 0 0 0 0 0 0 1 5 9 11 12 11 9 7 7 8 11 14 13 13 14 13 11 10 9 8 9 10 9 7 4 1 2 3 4 4 5
0 0 0 0 0 0 0 0 0 0 0 0 0 1 3 7 11 11 10 9 8 8 9 12 13 14 16 17 15 12 11 11 10 10 10 8 7 5 3 2 4 4 5 6
0 0 0 0 0 0 0 0 0 0 0 0 0 0 1 5 8 8 7 8 9 10 11 12 13 16 19 19 18 16 16 15 14 13 11 9 8 6 4 3 4 5 6 6
0 0 0 0 0 0 0 0 0 0 0 0 0 0 1 4 6 6 6 8 11 11 11 12 14 17 20 20 20 21 21 19 17 15 13 11 9 8 5 4 4 6 6 6
0 0 0 0 0 0 0 0 0 0 0 0 0 0 1 3 6 7 9 11 12 12 13 17 19 21 22 22 22 24 24 21 18 14 12 11 10 8 6 5 5 6 6 6
0 0 0 0 0 0 0 0 0 0 0 0 0 0 0 2 6 10 13 15 14 13 16 21 24 25 25 25 26 27 27 23 18 14 11 9 8 8 7 6 6 5 4 4
0 0 0 0 0 0 0 0 0 0 0 0 0 0 0 1 5 11 14 15 16 16 19 24 28 29 29 29 30 31 30 26 20 15 11 9 8 8 7 6 5 4 3 2
0 0 0 0 0 0 0 0 0 0 0 0 0 0 0 2 7 11 13 14 16 19 21 25 30 31 31 32 34 33 31 28 23 18 13 11 10 10 8 5 4 3 2 2
0 0 0 0 0 0 0 0 0 0 0 0 0 0 0 3 8 12 13 14 16 20 24 27 29 29 28 30 34 34 31 28 25 21 17 15 14 12 8 5 4 3 3 2
0 0 0 0 0 1 0 0 0 0 0 0 0 0 0 3 7 12 15 17 19 21 25 28 29 26 25 29 33 34 32 30 27 23 19 16 15 12 9 6 4 4 3 3
0 0 0 0 0 0 0 0 0 0 0 0 0 0 1 4 8 12 16 19 21 22 24 27 29 27 25 28 32 35 34 33 29 23 18 15 13 11 8 6 5 5 4 3
0 0 0 0 0 0 0 0 0 0 0 0 0 1 3 8 12 15 17 19 22 24 25 27 28 28 27 26 29 34 34 33 30 24 17 14 13 12 10 8 6 5 3 3
0 0 0 0 0 0 0 0 0 0 0 0 0 1 5 12 17 18 19 20 24 27 28 29 29 29 27 25 26 29 30 31 29 24 18 15 15 16 14 11 8 6 5 5
0 0 0 0 0 0 0 0 0 0 0 0 0 1 6 13 18 21 21 22 24 27 29 31 31 31 28 26 25 25 27 28 28 24 21 19 19 19 18 15 12 10 8 8
0 0 0 0 0 0 0 0 0 0 0 0 0 1 6 11 17 21 23 23 23 26 30 32 33 34 32 29 28 28 28 29 29 28 26 24 22 22 20 18 15 13 12 11
0 0 0 0 0 0 0 0 0 0 0 0 1 3 7 11 16 21 24 23 22 24 29 32 34 37 37 34 32 33 33 32 32 31 29 28 25 23 21 19 17 14 13 13
0 0 0 0 0 0 0 0 0 1 0 1 3 5 9 13 17 21 24 24 23 24 26 30 33 36 37 34 34 35 34 32 30 29 28 26 25 24 22 20 18 16 15 15
0 0 0 0 0 0 0 0 0 1 1 3 5 7 11 15 19 21 24 25 25 24 25 27 29 31 30 30 31 32 31 29 26 24 23 22 22 23 22 20 19 18 18 19
0 0 0 0 0 0 0 0 1 2 4 5 6 8 13 18 21 20 22 26 26 25 25 26 28 29 28 27 27 27 27 27 26 23 21 18 18 19 20 20 19 20 21 21
0 0 0 0 0 0 1 1 2 4 6 7 8 10 14 18 19 17 19 23 25 26 25 25 28 31 30 29 27 26 26 26 25 24 23 21 18 16 16 18 20 22 24 24
0 0 0 0 0 0 1 1 3 5 6 8 9 12 13 13 12 13 16 20 24 27 26 26 30 32 31 29 30 28 27 27 26 25 25 24 21 18 17 18 21 24 26 27
0 0 0 0 0 0 1 2 2 4 6 7 9 11 11 9 9 11 15 19 23 28 29 29 31 33 29 28 30 29 27 26 26 26 26 25 24 22 21 23 25 25 25 26
0 0 1 1 1 2 2 3 3 5 6 7 8 10 11 10 10 14 18 20 23 28 32 32 34 34 29 27 27 27 26 25 24 24 24 24 24 22 22 25 27 26 25 24
0 1 3 4 4 4 4 5 6 8 8 8 8 11 13 14 15 18 21 23 25 29 33 35 36 34 29 26 25 25 25 24 23 21 21 22 22 20 21 23 25 26 25 23
2 3 5 6 5 5 6 7 9 11 10 8 9 12 14 16 18 21 23 24 25 28 33 36 35 32 28 25 24 24 24 24 23 21 21 21 20 19 18 18 19 21 21 19
3 5 6 6 5 5 7 10 12 12 9 8 10 12 14 16 19 22 23 23 24 28 32 35 33 30 27 25 24 23 23 24 25 23 22 21 20 18 15 14 13 14 14 14
Wind_Speed
2 3 3 7 6 7 5 3 4 6 4 4 5 7 12 12 12 12 11 11 11 11 10 10 10 10 8 7 6 6 5 4 4 2 2 2 1 1 1 1 2 2 2 2
4 4 10 6 5 3 3 2 3 4 3 5 5 6 9 12 15 15 15 13 13 10 9 9 9 9 9 8 7 6 6 5 4 3 3 2 2 2 2 1 1 2 2 2
6 9 6 4 4 2 1 4 5 3 0 3 5 1 4 7 7 9 12 12 13 14 14 12 11 9 9 9 9 8 7 5 5 4 2 2 2 1 1 0 1 1 1 1
6 8 4 4 5 4 3 5 5 3 2 1 4 2 5 7 8 10 11 10 11 12 11 11 11 10 11 10 8 7 7 6 4 4 4 4 3 2 2 2 1 1 1 1
6 4 3 4 6 5 6 5 3 2 3 0 1 4 5 4 8 11 11 12 12 12 13 13 12 12 11 10 9 7 7 6 5 4 4 4 2 2 1 1 1 1 1 0
7 5 4 6 5 4 3 4 5 5 4 1 4 4 5 6 12 12 11 12 12 12 12 11 10 9 8 8 8 7 7 6 6 5 4 4 4 3 2 2 1 1 1 1
5 6 4 2 1 1 5 7 4 4 4 6 3 3 7 8 9 12 12 11 11 11 11 11 10 9 9 9 9 8 9 7 6 6 5 5 4 4 4 3 2 2 1 1
2 6 5 2 6 6 4 10 8 5 4 5 3 3 6 5 7 9 10 10 10 9 10 11 11 11 11 11 10 9 9 7 7 6 5 4 4 3 3 3 3 3 2 2
5 6 5 3 3 7 4 4 8 7 2 0 4 2 3 1 4 6 8 10 10 10 10 11 11 11 11 11 11 10 9 7 7 6 5 4 4 4 3 3 2 2 1 2
6 3 5 3 2 1 7 7 6 6 4 2 3 3 5 4 5 6 8 9 10 10 10 9 10 10 10 10 9 9 9 8 6 6 5 5 4 4 4 3 3 2 2 1
4 3 5 2 3 4 1 3 5 4 6 7 3 7 7 10 9 9 9 9 10 10 11 10 9 9 9 9 9 8 8 7 6 6 5 5 4 4 4 3 3 3 2 2
3 6 2 5 5 4 5 5 7 5 3 5 4 8 5 8 8 9 9 9 9 10 10 10 10 9 8 8 9 9 9 8 7 7 6 5 4 4 4 4 3 3 2 2
3 6 2 6 7 4 0 2 4 6 5 4 4 6 3 2 4 6 8 8 8 8 8 8 8 8 9 9 8 8 8 8 7 7 6 5 4 4 4 4 3 3 2 2
5 5 7 8 7 4 3 3 3 6 4 4 6 5 2 2 4 4 6 8 9 9 8 8 7 7 8 8 8 8 8 8 7 6 6 6 5 5 4 4 3 3 3 2
5 3 3 4 4 2 2 4 3 4 7 7 7 7 7 7 8 7 7 7 8 8 8 9 9 8 7 7 7 7 6 7 8 7 6 6 5 4 4 4 3 3 2 3
4 3 2 2 2 1 2 3 2 3 4 4 3 4 5 3 4 5 6 8 8 8 8 9 8 8 8 8 8 7 6 6 7 7 6 5 4 4 4 4 3 3 2 2
2 3 3 2 3 3 4 3 3 2 3 5 5 5 2 3 4 7 7 7 7 7 7 8 8 8 9 9 8 8 7 6 7 6 6 5 5 4 4 4 3 3 3 2
4 3 3 1 2 5 8 4 3 3 1 2 3 3 4 5 5 6 7 8 8 7 7 6 6 6 6 6 6 7 7 7 7 6 5 5 5 5 4 3 3 3 3 3
6 6 3 3 2 5 5 3 1 3 1 2 4 2 2 3 5 3 1 5 7 8 7 6 5 5 6 7 7 7 6 7 7 7 6 6 6 5 4 4 4 4 3 3
4 5 5 3 3 5 6 5 3 5 1 2 3 3 2 4 3 2 2 2 3 4 5 5 4 4 5 6 8 8 7 7 7 7 7 6 5 5 5 5 4 3 3 3
3 2 3 3 3 6 6 5 4 3 6 4 1 2 3 2 4 4 2 2 3 4 5 6 5 5 4 5 8 8 6 7 7 6 5 5 5 5 5 4 3 3 3 3
4 3 3 3 3 7 5 3 2 5 3 1 1 1 2 2 2 2 2 2 2 3 4 6 5 4 3 5 7 7 6 6 5 5 5 5 5 5 5 4 4 4 4 4
4 6 5 6 7 5 1 2 2 2 1 1 1 1 2 2 2 2 1 2 2 2 4 4 5 4 3 4 6 6 5 5 6 5 5 5 4 4 4 5 5 4 4 3
3 0 2 0 2 2 2 2 2 1 1 0 1 2 2 1 2 2 2 1 1 1 3 4 5 5 4 3 3 4 4 5 6 6 5 4 4 4 3 3 4 4 4 4
3 1 1 1 3 3 3 2 2 2 3 2 2 1 2 2 2 2 2 1 0 0 1 3 4 5 4 4 3 3 4 5 6 5 5 4 4 4 3 3 2 4 4 5
3 3 3 5 5 3 4 3 1 2 2 1 2 3 1 2 2 2 2 1 1 0 1 2 3 4 4 4 4 3 4 5 6 5 4 4 4 4 3 3 1 1 2 4
Wind_Direction
339 75 228 232 210 197 191 183 212 233 210 153 165 167 177 179 171 171 172 170 170 174 173 166 164 160 156 155 154 155 152 162 148 139 142 143 164 176 177 196 195 193 198 190
14 259 236 224 239 218 167 176 237 262 188 147 165 189 185 184 184 181 176 178 176 170 167 169 168 164 164 165 162 159 163 164 164 162 162 163 160 175 180 205 202 204 199 191
212 240 229 217 244 236 223 184 194 211 14 103 119 25 197 200 192 185 181 180 175 174 175 174 173 174 169 169 170 170 172 167 167 161 138 121 90 66 69 259 264 252 202 191
242 249 241 223 238 183 227 211 177 168 90 246 135 181 248 201 194 194 189 180 180 179 175 175 175 176 176 176 171 166 164 161 163 154 149 154 157 169 201 203 220 258 230 213
258 243 221 218 226 186 206 192 158 150 137 358 65 131 263 182 193 201 194 185 181 179 176 179 180 178 176 172 168 165 159 160 160 161 166 162 162 178 179 177 180 269 314 275
252 260 213 213 224 185 152 69 43 50 73 306 234 150 247 209 202 198 194 189 183 178 177 178 174 163 164 164 165 165 161 166 166 169 167 169 169 174 164 168 174 233 303 323
299 292 275 211 182 325 90 86 43 5 12 254 251 156 235 227 196 182 179 180 181 177 174 172 166 163 163 165 168 169 168 174 176 172 179 184 181 176 173 178 178 182 221 264
217 278 268 218 180 185 170 136 154 186 208 276 326 202 249 230 175 162 162 162 160 165 172 171 172 170 169 170 169 170 174 179 181 179 186 188 178 172 177 178 173 181 200 218
187 250 284 246 181 150 145 158 166 140 160 307 295 292 325 80 130 140 147 148 162 167 168 172 174 173 173 174 175 173 174 179 185 183 183 179 175 168 169 170 168 175 195 198
167 229 278 282 62 115 151 148 96 114 143 226 284 238 211 202 178 163 160 161 169 171 169 170 169 171 173 174 172 171 174 181 182 182 183 177 173 170 167 164 175 181 193 184
148 166 297 357 175 195 123 100 103 119 149 153 217 263 219 191 184 173 177 175 168 169 173 173 172 172 170 165 166 172 176 175 178 184 182 176 178 178 168 173 192 190 178 166
157 130 236 263 256 197 165 163 140 147 212 157 163 262 257 182 176 169 171 171 168 167 170 171 171 167 161 164 171 177 178 179 183 181 176 178 178 177 175 183 192 178 171 177
125 113 80 338 338 350 64 175 147 136 127 146 158 261 291 135 146 161 160 161 165 161 162 164 165 167 168 170 171 176 178 179 178 176 176 178 178 177 182 183 179 169 164 159
109 117 158 191 219 230 251 263 168 131 149 186 206 223 260 197 169 168 159 158 161 162 161 162 164 169 170 170 171 174 176 173 171 172 175 180 183 179 176 175 171 168 166 164
86 125 185 213 228 224 232 255 228 179 181 181 216 203 217 208 186 176 161 146 145 153 159 167 172 174 170 166 167 168 171 168 168 168 175 183 180 171 164 171 175 168 163 176
61 102 79 324 313 317 294 280 241 206 187 192 193 231 234 202 152 144 149 145 149 159 167 172 171 168 168 170 169 163 163 162 156 161 171 171 160 168 175 178 174 168 169 167
52 95 82 286 313 19 279 240 212 214 200 179 198 223 176 117 153 172 168 158 159 161 163 167 171 175 178 177 168 168 166 155 152 156 159 157 162 172 183 178 170 179 187 172
137 106 126 134 59 226 241 247 191 167 170 143 158 172 157 171 182 175 166 163 167 166 165 167 172 173 175 167 163 163 155 154 158 161 162 162 166 172 172 169 183 194 190 183
148 139 123 122 187 271 293 308 95 133 307 8 118 119 111 102 72 34 174 163 167 167 166 166 172 172 166 163 161 151 157 160 162 168 174 175 169 172 175 185 196 197 187 193
90 115 124 135 168 226 254 297 313 110 265 319 102 126 123 83 85 262 262 157 151 153 147 142 141 138 157 167 159 159 167 169 178 181 180 177 172 174 183 193 198 197 189 196
44 61 143 175 211 252 266 302 27 119 232 280 155 156 146 145 192 218 209 148 157 153 144 136 135 145 172 167 154 159 169 185 188 175 167 170 178 184 183 188 199 183 179 177
176 166 184 157 193 251 305 24 109 218 239 241 86 125 105 118 121 111 113 100 115 142 138 139 141 151 156 154 152 162 183 187 168 161 164 176 185 189 178 178 192 184 176 175
184 186 185 184 209 233 273 155 205 151 104 3 43 83 100 100 100 102 116 113 111 155 155 151 149 144 146 156 158 173 196 169 155 157 170 180 184 186 183 183 187 184 181 183
290 84 121 177 262 283 340 21 9 36 99 67 109 118 107 159 158 128 132 112 92 143 159 157 149 150 165 169 162 177 170 160 158 168 177 177 177 185 187 188 187 186 191 193
257 34 73 239 272 329 335 352 340 349 23 41 27 37 151 147 161 151 150 136 73 205 165 155 158 164 174 165 153 162 163 159 166 172 177 179 182 182 183 188 196 197 204 200
237 188 183 229 232 208 254 272 336 16 343 349 5 343 306 175 176 156 158 166 164 218 165 154 165 165 168 164 162 168 166 165 168 171 176 179 177 177 174 168 161 352 217 213